KD8PH Weather Reports


Display with metric or nautical units.
time (UTC)temp
F
wind
direction
speed
MPH
gust
MPH
rain 1hr
in
rain 24hr
in
rain mn
in
humidity
%
barometer
mb
20260505204548 74 225 8.0 14.0 0.00 0.00 0.00 52 1010.0
20260505203540 74 225 11.0 18.0 0.00 0.00 0.00 50 1009.9
20260505202554 74 203 13.0 20.0 0.00 0.00 0.00 51 1010.2
20260505201535 74 225 12.0 19.0 0.00 0.00 0.00 53 1010.0
20260505200534 74 225 9.0 16.0 0.00 0.00 0.00 51 1009.9
20260505195538 75 248 5.0 10.0 0.00 0.00 0.00 52 1010.6
20260505194536 76 248 6.0 11.0 0.00 0.00 0.00 48 1011.0
20260505193543 75 248 4.0 12.0 0.00 0.00 0.00 48 1011.0
20260505192542 75 225 10.0 16.0 0.00 0.00 0.00 45 1011.3
20260505191546 76 315 3.0 7.0 0.00 0.00 0.00 47 1011.4
20260505190550 75 248 5.0 13.0 0.00 0.00 0.00 45 1011.5
20260505185543 74 225 6.0 13.0 0.00 0.00 0.00 46 1011.9
20260505184546 74 225 6.0 13.0 0.00 0.00 0.00 44 1011.9
20260505183539 73 225 10.0 21.0 0.00 0.00 0.00 50 1011.9
20260505182540 74 225 9.0 18.0 0.00 0.00 0.00 47 1011.8
20260505181539 74 225 10.0 18.0 0.00 0.00 0.00 47 1011.9
20260505180534 74 225 9.0 15.0 0.00 0.00 0.00 46 1012.1
20260505175536 74 248 5.0 16.0 0.00 0.00 0.00 47 1012.1
20260505174553 73 225 9.0 15.0 0.00 0.00 0.00 47 1012.2
20260505173546 73 225 9.0 17.0 0.00 0.00 0.00 44 1012.5
20260505172547 74 225 10.0 16.0 0.00 0.00 0.00 44 1012.6
20260505171534 73 225 9.0 18.0 0.00 0.00 0.00 44 1012.6
20260505170539 73 225 10.0 17.0 0.00 0.00 0.00 52 1012.5
20260505165533 73 225 5.0 14.0 0.00 0.00 0.00 52 1012.6
20260505164547 72 225 4.0 10.0 0.00 0.00 0.00 54 1012.8
20260505163555 72 225 6.0 14.0 0.00 0.00 0.00 56 1012.7
20260505162544 71 225 8.0 15.0 0.00 0.00 0.00 57 1012.8
20260505161551 71 225 4.0 12.0 0.00 0.00 0.00 56 1012.9
20260505160533 71 225 2.0 7.0 0.00 0.00 0.00 58 1012.7
20260505152547 69 248 2.0 4.0 0.00 0.00 0.00 60 1012.9
20260505151533 69 248 2.0 7.0 0.00 0.00 0.00 63 1013.1
20260505150538 68 180 1.0 4.0 0.00 0.00 0.00 66 1013.1
20260505140537 65 225 5.0 10.0 0.00 0.00 0.00 69 1013.5
20260505124537 62 158 1.0 1.0 0.00 0.00 0.00 73 1013.4
20260505123544 62 158 1.0 2.0 0.00 0.00 0.00 74 1013.4
20260505122536 61 0.0 2.0 0.00 0.00 0.00 76 1013.4
20260505121538 60 0.0 0.0 0.00 0.00 0.00 82 1013.4
20260505120537 58 0.0 0.0 0.00 0.00 0.00 84 1012.9
20260505115536 57 0.0 0.0 0.00 0.00 0.00 83 1012.7
20260505114543 57 0.0 0.0 0.00 0.00 0.00 82 1012.4
20260505113548 57 0.0 0.0 0.00 0.00 0.00 81 1012.3
20260505112548 58 0.0 1.0 0.00 0.00 0.00 79 1012.3
20260505111537 60 338 1.0 2.0 0.00 0.00 0.00 76 1011.9
20260505110540 61 248 1.0 2.0 0.00 0.00 0.00 74 1011.8
20260505101552 61 248 2.0 6.0 0.00 0.00 0.00 72 1011.3
20260505100544 61 248 4.0 7.0 0.00 0.00 0.00 71 1011.3
20260505095544 61 225 3.0 8.0 0.00 0.00 0.00 72 1011.4
20260505094540 61 225 2.0 7.0 0.00 0.00 0.00 71 1011.5
20260505093541 61 248 2.0 6.0 0.00 0.00 0.00 72 1011.5
20260505092544 61 248 2.0 5.0 0.00 0.00 0.00 72 1011.5
20260505091536 62 248 3.0 5.0 0.00 0.00 0.00 70 1011.6
20260505090534 61 248 3.0 8.0 0.00 0.00 0.00 72 1011.6
20260505085542 60 0.0 0.0 0.00 0.00 0.00 77 1011.6
20260505084542 58 225 2.0 7.0 0.00 0.00 0.00 84 1011.5
20260505083542 55 0.0 0.0 0.00 0.00 0.00 88 1011.6
20260505082540 55 0.0 0.0 0.00 0.00 0.00 88 1011.7
20260505081545 55 0.0 0.0 0.00 0.00 0.00 87 1011.8
20260505080534 55 0.0 0.0 0.00 0.00 0.00 87 1011.9
20260505075540 56 0.0 0.0 0.00 0.00 0.00 86 1012.0
20260505074600 56 0.0 0.0 0.00 0.00 0.00 86 1012.0
20260505073554 56 0.0 0.0 0.00 0.00 0.00 87 1011.9
20260505072546 56 0.0 0.0 0.00 0.00 0.00 85 1011.8
20260505071543 56 0.0 0.0 0.00 0.00 0.00 85 1011.6
20260505070558 57 0.0 0.0 0.00 0.00 0.00 87 1011.8
20260505065538 56 0.0 0.0 0.00 0.00 0.00 85 1011.8
20260505064546 56 0.0 0.0 0.00 0.00 0.00 85 1011.8
20260505063540 56 0.0 0.0 0.00 0.00 0.00 84 1011.9
20260505062547 57 0.0 0.0 0.00 0.00 0.00 84 1011.9
20260505061556 57 0.0 0.0 0.00 0.00 0.00 84 1011.9
20260505060539 57 0.0 0.0 0.00 0.00 0.00 84 1011.9
20260505055546 57 0.0 0.0 0.00 0.00 0.00 84 1012.0
20260505054548 57 0.0 0.0 0.00 0.00 0.00 83 1012.0
20260505053553 57 0.0 0.0 0.00 0.00 0.00 83 1012.1
20260505052540 58 0.0 0.0 0.00 0.00 0.00 83 1012.2
20260505051549 58 0.0 0.0 0.00 0.00 0.00 82 1012.2
20260505050541 58 0.0 0.0 0.00 0.00 0.00 83 1012.1
20260505041541 60 0.0 0.0 0.00 0.00 0.00 80 1012.0
20260505040547 60 0.0 0.0 0.00 0.00 0.00 78 1012.0
20260505035540 60 0.0 0.0 0.00 0.00 0.00 77 1012.1
20260505034547 61 0.0 0.0 0.00 0.00 0.00 77 1012.0
20260505033545 61 0.0 0.0 0.00 0.00 0.00 77 1012.1
20260505032538 61 0.0 0.0 0.00 0.00 0.00 76 1012.0
20260505031548 62 0.0 0.0 0.00 0.00 0.00 75 1012.0
20260505030551 62 0.0 0.0 0.00 0.00 0.00 75 1011.9
20260505025550 63 0.0 0.0 0.00 0.00 0.00 74 1012.0
20260505024535 63 0.0 0.0 0.00 0.00 0.00 72 1011.9
20260505023538 64 0.0 0.0 0.00 0.00 0.00 69 1011.9
20260505022557 65 0.0 0.0 0.00 0.00 0.00 70 1011.7
20260505021539 67 0.0 0.0 0.00 0.00 0.00 67 1011.6
20260505020536 66 0.0 0.0 0.00 0.00 0.00 64 1011.6
20260505015555 66 0.0 0.0 0.00 0.00 0.00 64 1011.5
20260505014542 66 0.0 0.0 0.00 0.00 0.00 65 1011.4
20260505013543 67 0.0 0.0 0.00 0.00 0.00 65 1011.4
20260505012601 68 0.0 0.0 0.00 0.00 0.00 61 1011.3
20260505011544 69 0.0 2.0 0.00 0.00 0.00 58 1011.3
20260505010553 71 0.0 0.0 0.00 0.00 0.00 55 1011.2
20260505005538 72 293 1.0 1.0 0.00 0.00 0.00 53 1011.1
20260505004540 73 0.0 1.0 0.00 0.00 0.00 49 1010.9
20260505003548 74 248 2.0 4.0 0.00 0.00 0.00 48 1010.9
20260505002545 74 248 3.0 6.0 0.00 0.00 0.00 44 1010.8
20260505001552 75 225 4.0 8.0 0.00 0.00 0.00 45 1010.7
20260505000539 75 248 4.0 9.0 0.00 0.00 0.00 44 1010.6
20260504235538 75 225 4.0 10.0 0.00 0.00 0.00 45 1010.6
20260504234543 76 225 6.0 11.0 0.00 0.00 0.00 45 1010.6
20260504233537 76 225 7.0 13.0 0.00 0.00 0.00 45 1010.7
20260504232538 76 248 2.0 5.0 0.00 0.00 0.00 48 1010.8
20260504231541 76 248 2.0 5.0 0.00 0.00 0.00 46 1010.8
20260504230536 76 270 2.0 7.0 0.00 0.00 0.00 46 1010.8
20260504225538 76 225 3.0 12.0 0.00 0.00 0.00 46 1010.9
20260504224539 76 248 3.0 9.0 0.00 0.00 0.00 45 1011.0
20260504223557 77 270 3.0 7.0 0.00 0.00 0.00 46 1011.1
20260504222546 77 248 3.0 12.0 0.00 0.00 0.00 44 1011.1
20260504221601 77 225 3.0 13.0 0.00 0.00 0.00 45 1011.3
20260504220539 77 248 4.0 10.0 0.00 0.00 0.00 43 1011.3
20260504215535 77 293 3.0 8.0 0.00 0.00 0.00 44 1011.4
20260504214550 77 248 6.0 16.0 0.00 0.00 0.00 43 1011.4
20260504213538 77 248 3.0 8.0 0.00 0.00 0.00 46 1011.3
20260504212543 77 225 6.0 11.0 0.00 0.00 0.00 45 1011.3
20260504211541 77 225 6.0 13.0 0.00 0.00 0.00 45 1011.3
20260504210536 77 68 2.0 6.0 0.00 0.00 0.00 43 1011.4
20260504205538 76 248 4.0 9.0 0.00 0.00 0.00 45 1011.6